Tracking 18980 objects as of 19-Feb-2018
HD Live streaming from Space Station
objects crossing your sky now

FENGYUN 1C DEB

Track FENGYUN 1C DEB now!
10-day predictions


NORAD ID: 32331
Int'l Code: 1999-025CXY
Perigee: 811.1 km
Apogee: 868.5 km
Inclination: 99.2 °
Period: 101.6 minutes
Semi major axis: 7210 km
RCS: 0.0092 m2 (small)
Launch date: May 10, 1999
Source: People's Republic of China (PRC)
Launch site: Taiyaun Space Center, China (TSC)

Note: This is SATELLITE DEBRIS
aabbcc
Your satellite tracking list
Your tracking list is empty




NASA's NSSDC Master Catalog

Two Line Element Set (TLE):
1 32331U 99025CXY 18050.16128798  .00001158  00000-0  58592-3 0  9990
2 32331  99.2007 186.0683 0039806  58.8231 301.6835 14.17838518545316
Source of the keplerian elements: AFSPC